User: anonymous   Login
Location: El Mouella
(16.4949°N, 9.1594°W)
Time: 17:22:34
(UTC+00:00)
Language:

STARLINK-60 - Orbit

View from above orbital plane
View from above orbital plane
View from above satellite
View from above satellite

Ground track
Ground track

The orbit data is extracted from the following two-line orbital elements,

1 44273U 19029AQ  20228.10454530  .00053155  00000-0  56936-3 0  9998
2 44273  52.9933 175.7266 0002071 273.9889  86.0887 15.63338259 69752
Epoch (UTC): 15 August 2020 02:30:32
Eccentricity: 0.0002071
inclination: 52.9933°
perigee height: 376 km
apogee height: 379 km
right ascension of ascending node: 175.7266°
argument of perigee: 273.9889°
revolutions per day: 15.63338259
mean anomaly at epoch: 86.0887°
orbit number at epoch: 6975

The dashed part of the orbit path shows where the satellite is in the earth's shadow,  

DLR